Douglas, WY

11:52 AM MST on December 08, 2016 (GMT -0700)
Converse County

Weather History for KDGW - December, 2013

Change the Weather History Date:

Tuesday, December 10, 2013

  Actual Average Record
Temperature  
Mean Temperature 19 °F 24 °F  
Max Temperature 30 °F 37 °F 60 °F (2014)
Min Temperature 7 °F 11 °F -9 °F (2009)
Degree Days  
Heating Degree Days 46 41  
Month to date heating degree days 534 400  
Since 1 July heating degree days 2271 2222  
Cooling Degree Days 0 0  
Month to date cooling degree days 0 0  
Year to date cooling degree days 739 486  
Moisture  
Dew Point 11 °F    
Average Humidity 58    
Maximum Humidity 73    
Minimum Humidity 43    
Precipitation  
Precipitation T in 0.01 in 0.09 in (2000)
Month to date precipitation T 0.15  
Year to date precipitation 9.48 13.14  
Sea Level Pressure  
Sea Level Pressure 30.15 in    
Wind  
Wind Speed 14 mph (NW)    
Max Wind Speed 31 mph    
Max Gust Speed 38 mph    
Visibility 7 miles    
Events Snow    
T = Trace of Precipitation, MM = Missing Value Source: NWS Daily Summary

Daily Weather History Graph

Daily Weather History Graph

Search for Another Location

Airport or City:

Trip Planner

Search our weather history database for the weather conditions in past years. The results will help you decide how hot, cold, wet, or windy it might be!

Date:

Astronomy

Dec. 10, 2013 Rise Set
Actual Time 7:21 AM MST 4:27 PM MST
Civil Twilight 6:49 AM MST 4:59 PM MST
Nautical Twilight 6:13 AM MST 5:35 PM MST
Astronomical Twilight 5:39 AM MST 6:09 PM MST
Moon 12:37 PM MST (12/10) 12:34 AM MST (12/10)
Length of Visible Light 10h 10m
Length of Day
9h 05m
Waxing Gibbous, 62% of the Moon is Illuminated
Dec 10
Waxing Gibbous
Dec 17
Full
Dec 25
Last Quarter
Jan 1
New
Jan 7
First Quarter

Hourly Weather History & Observations

Time (MST) Temp. Windchill Dew Point Humidity Pressure Visibility Wind Dir Wind Speed Gust Speed Precip Events Conditions
12:53 AM 19.0 °F 2.7 °F 3.0 °F 50% 30.16 in 10.0 mi West 20.7 mph 26.5 mph N/A   Clear
1:53 AM 18.0 °F 5.4 °F 3.0 °F 52% 30.16 in 10.0 mi West 11.5 mph - N/A   Clear
2:53 AM 18.0 °F 11.1 °F 3.0 °F 52% 30.16 in 10.0 mi Variable 4.6 mph - N/A   Clear
3:53 AM 16.0 °F 8.8 °F 1.9 °F 54% 30.12 in 10.0 mi WSW 4.6 mph - N/A   Clear
4:53 AM 19.9 °F 11.1 °F 3.9 °F 50% 30.09 in 10.0 mi WSW 6.9 mph - N/A   Clear
5:53 AM 21.9 °F 10.4 °F 5.0 °F 48% 30.06 in 10.0 mi West 11.5 mph - N/A   Clear
6:48 AM 24.8 °F 8.7 °F 6.8 °F 46% 29.90 in 10.0 mi West 26.5 mph 32.2 mph N/A   Clear
6:53 AM 24.1 °F 7.4 °F 7.0 °F 48% 30.03 in 10.0 mi West 27.6 mph 38.0 mph N/A   Clear
7:53 AM 24.1 °F 19.7 °F 9.0 °F 53% 30.06 in 10.0 mi East 3.5 mph - N/A   Clear
8:53 AM 25.0 °F 10.9 °F 10.0 °F 53% 30.06 in 10.0 mi West 19.6 mph 27.6 mph N/A   Mostly Cloudy
9:53 AM 26.1 °F 10.7 °F 9.0 °F 49% 30.07 in 10.0 mi West 25.3 mph 34.5 mph N/A   Clear
10:53 AM 28.0 °F 15.7 °F 10.9 °F 49% 30.07 in 10.0 mi West 17.3 mph 26.5 mph N/A   Mostly Cloudy
11:53 AM 27.0 °F 11.3 °F 10.0 °F 49% 30.05 in 10.0 mi West 27.6 mph 36.8 mph N/A   Partly Cloudy
12:53 PM 30.0 °F 15.4 °F 10.9 °F 45% 30.05 in 10.0 mi WNW 27.6 mph 34.5 mph N/A   Overcast
1:53 PM 28.9 °F 14.3 °F 10.9 °F 47% 30.08 in 10.0 mi West 26.5 mph 38.0 mph N/A   Overcast
2:53 PM 28.9 °F 15.1 °F 12.9 °F 51% 30.10 in 10.0 mi WNW 23.0 mph 28.8 mph N/A   Overcast
3:53 PM 28.0 °F 15.3 °F 12.9 °F 53% 30.17 in 10.0 mi WNW 18.4 mph - N/A   Overcast
4:16 PM 24.8 °F 14.0 °F 17.6 °F 74% 30.05 in 6.0 mi NNW 11.5 mph - 0.00 in Snow Light Snow
4:24 PM 24.8 °F 14.0 °F 17.6 °F 74% 30.06 in 2.0 mi NW 11.5 mph - 0.00 in Snow Light Snow
4:31 PM 24.8 °F 14.6 °F 17.6 °F 74% 30.06 in 1.5 mi NNW 10.4 mph - 0.00 in Snow Light Snow
4:38 PM 24.8 °F 12.4 °F 17.6 °F 74% 30.06 in 3.0 mi North 15.0 mph - 0.00 in Snow Light Snow
4:50 PM 23.0 °F 11.1 °F 17.6 °F 80% 30.07 in 4.0 mi North 12.7 mph 21.9 mph 0.00 in Snow Light Snow
4:53 PM 23.0 °F 11.1 °F 17.1 °F 78% 30.22 in 4.0 mi North 12.7 mph 21.9 mph 0.00 in Snow Light Snow
5:53 PM 21.9 °F 9.8 °F 16.0 °F 78% 30.25 in 10.0 mi NNW 12.7 mph - 0.00 in   Overcast
6:28 PM 21.2 °F 10.1 °F 17.6 °F 86% 30.13 in 4.0 mi NNW 10.4 mph - 0.00 in Snow Light Snow
6:53 PM 21.9 °F 14.5 °F 17.1 °F 82% 30.28 in 2.5 mi NW 5.8 mph - 0.00 in Snow Light Snow
7:03 PM 21.2 °F 13.6 °F 17.6 °F 86% 30.14 in 3.0 mi NW 5.8 mph - 0.00 in Snow Light Snow
7:16 PM 21.2 °F 7.3 °F 17.6 °F 86% 30.16 in 1.8 mi North 16.1 mph 21.9 mph 0.00 in Snow Light Snow
7:22 PM 19.4 °F 5.5 °F 15.8 °F 86% 30.16 in 0.8 mi North 15.0 mph 21.9 mph 0.00 in Snow Light Snow
7:32 PM 19.4 °F 3.6 °F 12.2 °F 74% 30.16 in 1.2 mi North 19.6 mph 24.2 mph 0.00 in Snow Light Snow
7:44 PM 19.4 °F 5.5 °F 12.2 °F 74% 30.17 in 2.5 mi North 15.0 mph 23.0 mph 0.00 in Snow Light Snow
7:51 PM 19.4 °F 5.5 °F 12.2 °F 74% 30.17 in 5.0 mi North 15.0 mph 23.0 mph 0.00 in Snow Light Snow
7:53 PM 19.0 °F 4.5 °F 12.0 °F 74% 30.32 in 6.0 mi North 16.1 mph - 0.00 in Snow Light Snow
8:09 PM 17.6 °F 4.3 °F 10.4 °F 73% 30.18 in 7.0 mi North 12.7 mph - 0.00 in Snow Light Snow
8:53 PM 18.0 °F - 10.9 °F 74% 30.37 in 10.0 mi Calm Calm - 0.00 in   Overcast
9:53 PM 16.0 °F 8.8 °F 10.9 °F 81% 30.40 in 5.0 mi North 4.6 mph - 0.00 in Snow Light Snow
10:13 PM 14.0 °F 8.2 °F 8.6 °F 79% 30.24 in 2.5 mi NNE 3.5 mph - 0.00 in Snow Light Snow
10:23 PM 14.0 °F - 8.6 °F 79% 30.25 in 4.0 mi Calm Calm - 0.00 in Snow Light Snow
10:53 PM 10.9 °F 1.4 °F 7.0 °F 84% 30.43 in 7.0 mi ENE 5.8 mph - 0.00 in Snow Light Snow
11:53 PM 7.0 °F - 3.0 °F 84% 30.44 in 10.0 mi Calm Calm - 0.00 in   Scattered Clouds